| time (UTC) | temp F | wind direction | speed MPH | gust MPH | rain 1hr in | rain 24hr in | rain mn in | humidity % | barometer mb |
| 20260505221523 | 34 | 0.0 | 0.0 | 0.00 | 0.00 | 0.00 | 54 | 1013.1 | |
| 20260505220523 | 35 | 0.0 | 0.0 | 0.00 | 0.00 | 0.00 | 53 | 1013.1 | |
| 20260505215523 | 35 | 0.0 | 0.0 | 0.00 | 0.00 | 0.00 | 52 | 1013.1 | |
| 20260505214544 | 36 | 90 | 0.0 | 1.0 | 0.00 | 0.00 | 0.00 | 52 | 1013.1 |
| 20260505213524 | 36 | 0.0 | 0.0 | 0.00 | 0.00 | 0.00 | 52 | 1013.1 | |
| 20260505212524 | 37 | 0.0 | 0.0 | 0.00 | 0.00 | 0.00 | 51 | 1013.1 | |
| 20260505211520 | 37 | 0.0 | 0.0 | 0.00 | 0.00 | 0.00 | 51 | 1013.1 | |
| 20260505210525 | 37 | 0.0 | 0.0 | 0.00 | 0.00 | 0.00 | 49 | 1013.1 | |
| 20260505205524 | 38 | 0.0 | 0.0 | 0.00 | 0.00 | 0.00 | 48 | 1013.1 | |
| 20260505204527 | 39 | 0.0 | 0.0 | 0.00 | 0.00 | 0.00 | 47 | 1013.1 | |
| 20260505203523 | 38 | 0.0 | 0.0 | 0.00 | 0.00 | 0.00 | 48 | 1013.1 | |
| 20260505202524 | 40 | 0.0 | 0.0 | 0.00 | 0.00 | 0.00 | 47 | 1013.1 | |
| 20260505201523 | 40 | 0.0 | 0.0 | 0.00 | 0.00 | 0.00 | 46 | 1013.1 | |
| 20260505200520 | 40 | 0.0 | 0.0 | 0.00 | 0.00 | 0.00 | 44 | 1013.1 | |
| 20260505195525 | 42 | 0.0 | 0.0 | 0.00 | 0.00 | 0.00 | 43 | 1013.1 | |
| 20260505194523 | 42 | 0.0 | 0.0 | 0.00 | 0.00 | 0.00 | 41 | 1013.1 | |
| 20260505193523 | 43 | 0.0 | 0.0 | 0.00 | 0.00 | 0.00 | 40 | 1012.1 | |
| 20260505192524 | 44 | 0.0 | 0.0 | 0.00 | 0.00 | 0.00 | 37 | 1012.1 | |
| 20260505191523 | 44 | 0.0 | 0.0 | 0.00 | 0.00 | 0.00 | 36 | 1012.1 | |
| 20260505190523 | 45 | 0.0 | 0.0 | 0.00 | 0.00 | 0.00 | 35 | 1012.1 | |
| 20260505185520 | 47 | 0.0 | 0.0 | 0.00 | 0.00 | 0.00 | 33 | 1012.1 | |
| 20260505184524 | 47 | 248 | 1.0 | 3.0 | 0.00 | 0.00 | 0.00 | 32 | 1012.1 |
| 20260505183515 | 48 | 264 | 4.0 | 6.0 | 0.00 | 0.00 | 0.00 | 32 | 1012.1 |
| 20260505182523 | 49 | 256 | 5.0 | 6.0 | 0.00 | 0.00 | 0.00 | 32 | 1012.1 |
| 20260505181517 | 50 | 253 | 5.0 | 6.0 | 0.00 | 0.00 | 0.00 | 31 | 1012.1 |
| 20260505180543 | 51 | 265 | 6.0 | 8.0 | 0.00 | 0.00 | 0.00 | 30 | 1012.1 |
| 20260505175544 | 52 | 271 | 8.0 | 9.0 | 0.00 | 0.00 | 0.00 | 29 | 1012.1 |
| 20260505174520 | 52 | 256 | 8.0 | 9.0 | 0.00 | 0.00 | 0.00 | 27 | 1012.1 |
| 20260505173525 | 53 | 272 | 7.0 | 8.0 | 0.00 | 0.00 | 0.00 | 25 | 1012.1 |
| 20260505172524 | 55 | 259 | 7.0 | 8.0 | 0.00 | 0.00 | 0.00 | 23 | 1012.1 |
| 20260505171523 | 57 | 269 | 7.0 | 10.0 | 0.00 | 0.00 | 0.00 | 22 | 1012.1 |
| 20260505170523 | 58 | 271 | 7.0 | 9.0 | 0.00 | 0.00 | 0.00 | 22 | 1011.1 |
| 20260505165544 | 60 | 266 | 7.0 | 9.0 | 0.00 | 0.00 | 0.00 | 22 | 1011.2 |
| 20260505164523 | 61 | 260 | 5.0 | 8.0 | 0.00 | 0.00 | 0.00 | 21 | 1012.1 |
| 20260505163541 | 63 | 289 | 4.0 | 8.0 | 0.00 | 0.00 | 0.00 | 21 | 1012.1 |
| 20260505162524 | 64 | 290 | 4.0 | 6.0 | 0.00 | 0.00 | 0.00 | 20 | 1012.1 |
| 20260505161532 | 64 | 262 | 6.0 | 8.0 | 0.00 | 0.00 | 0.00 | 21 | 1012.1 |
| 20260505160526 | 65 | 289 | 7.0 | 11.0 | 0.00 | 0.00 | 0.00 | 23 | 1012.1 |
| 20260505152521 | 65 | 280 | 8.0 | 10.0 | 0.00 | 0.00 | 0.00 | 23 | 1012.1 |
| 20260505151524 | 66 | 267 | 6.0 | 8.0 | 0.00 | 0.00 | 0.00 | 23 | 1012.1 |
| 20260505150524 | 66 | 270 | 8.0 | 11.0 | 0.00 | 0.00 | 0.00 | 23 | 1012.1 |
| 20260505140525 | 67 | 282 | 10.0 | 12.0 | 0.00 | 0.00 | 0.00 | 21 | 1011.1 |
| 20260505124544 | 64 | 275 | 13.0 | 15.0 | 0.00 | 0.00 | 0.00 | 27 | 1011.1 |
| 20260505123624 | 66 | 267 | 12.0 | 15.0 | 0.00 | 0.00 | 0.00 | 27 | 1011.1 |
| 20260505122523 | 66 | 254 | 11.0 | 14.0 | 0.00 | 0.00 | 0.00 | 28 | 1011.1 |
| 20260505121544 | 65 | 277 | 10.0 | 14.0 | 0.00 | 0.00 | 0.00 | 28 | 1011.1 |
| 20260505120523 | 65 | 265 | 14.0 | 18.0 | 0.00 | 0.00 | 0.00 | 27 | 1011.1 |
| 20260505115526 | 65 | 256 | 8.0 | 10.0 | 0.00 | 0.00 | 0.00 | 28 | 1011.1 |
| 20260505114523 | 65 | 262 | 10.0 | 13.0 | 0.00 | 0.00 | 0.00 | 29 | 1011.1 |
| 20260505113523 | 63 | 263 | 10.0 | 15.0 | 0.00 | 0.00 | 0.00 | 31 | 1011.1 |
| 20260505112526 | 63 | 267 | 11.0 | 15.0 | 0.00 | 0.00 | 0.00 | 31 | 1011.1 |
| 20260505111524 | 62 | 270 | 11.0 | 13.0 | 0.00 | 0.00 | 0.00 | 30 | 1011.1 |
| 20260505110544 | 62 | 284 | 10.0 | 13.0 | 0.00 | 0.00 | 0.00 | 31 | 1011.1 |
| 20260505101604 | 58 | 284 | 11.0 | 15.0 | 0.00 | 0.00 | 0.00 | 33 | 1011.1 |
| 20260505100543 | 58 | 275 | 11.0 | 13.0 | 0.00 | 0.00 | 0.00 | 33 | 1011.1 |
| 20260505095523 | 56 | 274 | 11.0 | 15.0 | 0.00 | 0.00 | 0.00 | 34 | 1011.1 |
| 20260505094523 | 55 | 272 | 9.0 | 13.0 | 0.00 | 0.00 | 0.00 | 33 | 1011.1 |
| 20260505093526 | 55 | 267 | 12.0 | 15.0 | 0.00 | 0.00 | 0.00 | 35 | 1011.1 |
| 20260505092524 | 53 | 266 | 10.0 | 10.0 | 0.00 | 0.00 | 0.00 | 34 | 1011.1 |
| 20260505091543 | 54 | 276 | 9.0 | 11.0 | 0.00 | 0.00 | 0.00 | 37 | 1011.1 |
| 20260505090524 | 53 | 251 | 8.0 | 11.0 | 0.00 | 0.00 | 0.00 | 40 | 1011.1 |
| 20260505085523 | 53 | 262 | 6.0 | 11.0 | 0.00 | 0.00 | 0.00 | 41 | 1011.1 |
| 20260505084544 | 52 | 253 | 3.0 | 8.0 | 0.00 | 0.00 | 0.00 | 41 | 1011.1 |
| 20260505083523 | 51 | 262 | 7.0 | 8.0 | 0.00 | 0.00 | 0.00 | 40 | 1011.1 |
| 20260505082523 | 50 | 266 | 3.0 | 5.0 | 0.00 | 0.00 | 0.00 | 40 | 1011.1 |
| 20260505081524 | 49 | 268 | 9.0 | 10.0 | 0.00 | 0.00 | 0.00 | 39 | 1011.1 |
| 20260505080523 | 49 | 284 | 8.0 | 11.0 | 0.00 | 0.00 | 0.00 | 42 | 1011.1 |
| 20260505075523 | 48 | 262 | 10.0 | 13.0 | 0.00 | 0.00 | 0.00 | 44 | 1011.1 |
| 20260505074523 | 48 | 295 | 5.0 | 8.0 | 0.00 | 0.00 | 0.00 | 47 | 1011.1 |
| 20260505073524 | 48 | 254 | 5.0 | 8.0 | 0.00 | 0.00 | 0.00 | 49 | 1011.1 |
| 20260505072542 | 48 | 278 | 2.0 | 5.0 | 0.00 | 0.00 | 0.00 | 51 | 1011.1 |
| 20260505071523 | 47 | 6 | 0.0 | 1.0 | 0.00 | 0.00 | 0.00 | 51 | 1011.1 |
| 20260505070518 | 46 | 312 | 3.0 | 5.0 | 0.00 | 0.00 | 0.00 | 51 | 1011.1 |
| 20260505065536 | 45 | 265 | 8.0 | 10.0 | 0.00 | 0.00 | 0.00 | 52 | 1011.1 |
| 20260505064523 | 45 | 326 | 3.0 | 5.0 | 0.00 | 0.00 | 0.00 | 53 | 1011.1 |
| 20260505063519 | 44 | 293 | 4.0 | 9.0 | 0.00 | 0.00 | 0.00 | 53 | 1011.1 |
| 20260505062523 | 44 | 338 | 0.0 | 1.0 | 0.00 | 0.00 | 0.00 | 53 | 1011.1 |
| 20260505061544 | 44 | 315 | 3.0 | 7.0 | 0.00 | 0.00 | 0.00 | 54 | 1011.1 |
| 20260505060518 | 43 | 297 | 3.0 | 7.0 | 0.00 | 0.00 | 0.00 | 55 | 1011.1 |
| 20260505055524 | 43 | 297 | 4.0 | 6.0 | 0.00 | 0.00 | 0.00 | 56 | 1011.1 |
| 20260505054524 | 43 | 280 | 5.0 | 7.0 | 0.00 | 0.00 | 0.00 | 60 | 1011.1 |
| 20260505053515 | 42 | 274 | 3.0 | 7.0 | 0.00 | 0.00 | 0.00 | 64 | 1011.1 |
| 20260505052545 | 42 | 293 | 1.0 | 2.0 | 0.00 | 0.00 | 0.00 | 64 | 1011.1 |
| 20260505051523 | 42 | 0.0 | 0.0 | 0.00 | 0.00 | 0.00 | 65 | 1010.1 | |
| 20260505050523 | 42 | 293 | 1.0 | 2.0 | 0.00 | 0.00 | 0.00 | 65 | 1010.1 |
| 20260505041523 | 41 | 0.0 | 0.0 | 0.00 | 0.00 | 0.00 | 69 | 1010.1 | |
| 20260505040517 | 41 | 0.0 | 0.0 | 0.00 | 0.00 | 0.00 | 69 | 1010.1 | |
| 20260505035528 | 41 | 248 | 1.0 | 2.0 | 0.00 | 0.00 | 0.00 | 71 | 1010.1 |
| 20260505034524 | 41 | 0.0 | 0.0 | 0.00 | 0.00 | 0.00 | 70 | 1009.1 | |
| 20260505033528 | 41 | 0.0 | 0.0 | 0.00 | 0.00 | 0.00 | 70 | 1009.1 | |
| 20260505032523 | 42 | 0.0 | 0.0 | 0.00 | 0.00 | 0.00 | 70 | 1009.1 | |
| 20260505031523 | 43 | 280 | 1.0 | 4.0 | 0.00 | 0.00 | 0.00 | 71 | 1009.1 |
| 20260505030547 | 43 | 280 | 2.0 | 4.0 | 0.00 | 0.00 | 0.00 | 72 | 1009.1 |
| 20260505025523 | 43 | 277 | 3.0 | 6.0 | 0.00 | 0.00 | 0.00 | 74 | 1009.1 |
| 20260505024523 | 43 | 280 | 3.0 | 5.0 | 0.00 | 0.00 | 0.00 | 75 | 1009.1 |
| 20260505023524 | 43 | 272 | 3.0 | 5.0 | 0.00 | 0.00 | 0.00 | 76 | 1009.1 |
| 20260505022543 | 44 | 248 | 4.0 | 6.0 | 0.00 | 0.00 | 0.00 | 77 | 1009.1 |
| 20260505021523 | 44 | 293 | 3.0 | 5.0 | 0.00 | 0.00 | 0.00 | 79 | 1009.1 |
| 20260505020523 | 45 | 263 | 4.0 | 6.0 | 0.00 | 0.00 | 0.00 | 79 | 1009.1 |
| 20260505015523 | 45 | 293 | 3.0 | 10.0 | 0.00 | 0.00 | 0.00 | 80 | 1009.1 |
| 20260505014524 | 46 | 275 | 4.0 | 6.0 | 0.00 | 0.00 | 0.00 | 80 | 1009.1 |
| 20260505013522 | 46 | 268 | 6.0 | 9.0 | 0.00 | 0.00 | 0.00 | 80 | 1009.1 |
| 20260505012521 | 47 | 270 | 8.0 | 11.0 | 0.00 | 0.00 | 0.00 | 80 | 1009.1 |
| 20260505011518 | 47 | 256 | 7.0 | 13.0 | 0.00 | 0.00 | 0.00 | 80 | 1009.1 |
| 20260505010518 | 47 | 265 | 6.0 | 9.0 | 0.00 | 0.00 | 0.00 | 81 | 1009.1 |
| 20260505005524 | 47 | 264 | 9.0 | 13.0 | 0.00 | 0.00 | 0.00 | 81 | 1009.1 |
| 20260505004523 | 47 | 259 | 9.0 | 11.0 | 0.00 | 0.00 | 0.00 | 81 | 1009.1 |
| 20260505003523 | 47 | 268 | 8.0 | 10.0 | 0.00 | 0.00 | 0.00 | 81 | 1009.1 |
| 20260505002544 | 47 | 286 | 10.0 | 14.0 | 0.00 | 0.00 | 0.00 | 81 | 1009.1 |
| 20260505001523 | 47 | 258 | 8.0 | 11.0 | 0.00 | 0.00 | 0.00 | 81 | 1009.1 |
| 20260505000523 | 47 | 269 | 8.0 | 11.0 | 0.00 | 0.00 | 0.00 | 81 | 1009.1 |
| 20260504235523 | 47 | 278 | 9.0 | 13.0 | 0.00 | 0.00 | 0.00 | 81 | 1009.1 |
| 20260504234523 | 47 | 266 | 8.0 | 11.0 | 0.00 | 0.00 | 0.00 | 81 | 1009.1 |
| 20260504233523 | 47 | 261 | 8.0 | 12.0 | 0.00 | 0.00 | 0.00 | 80 | 1009.1 |
| 20260504232523 | 47 | 285 | 8.0 | 13.0 | 0.00 | 0.00 | 0.00 | 80 | 1009.1 |
| 20260504231543 | 47 | 259 | 7.0 | 10.0 | 0.00 | 0.00 | 0.00 | 80 | 1009.1 |
| 20260504230520 | 47 | 268 | 9.0 | 13.0 | 0.00 | 0.00 | 0.00 | 80 | 1009.1 |
| 20260504225518 | 47 | 248 | 7.0 | 9.0 | 0.00 | 0.00 | 0.00 | 80 | 1009.1 |
| 20260504224516 | 47 | 267 | 8.0 | 10.0 | 0.00 | 0.00 | 0.00 | 80 | 1009.1 |
| 20260504223523 | 47 | 256 | 8.0 | 10.0 | 0.00 | 0.00 | 0.00 | 80 | 1009.1 |
| 20260504222523 | 47 | 248 | 8.0 | 10.0 | 0.00 | 0.00 | 0.00 | 81 | 1009.1 |